RH
58 48 45 51 55 57 60 62 64 65 65 66 69 70 72 78 86 89 87 80 72 70 73 73 70 67 68 70 70 70 69 70 73 71 69 70 69 71 74 72 70 71 71 70 67 61 56 55 55 55 55 60 74 89 95 97 99 100 98 96 95 84 80 89 92 95 94 75 72 88 88 86 91 93
55 47 49 56 58 60 63 63 61 59 60 64 70 74 74 75 80 85 89 84 74 72 74 72 70 68 67 67 68 69 68 69 72 71 69 69 70 73 72 71 72 72 72 73 71 66 63 60 57 57 57 55 60 74 87 95 98 100 100 99 100 93 85 88 91 94 96 84 79 88 91 89 92 94
51 48 54 59 60 62 63 62 57 52 54 62 71 77 77 77 79 80 85 85 76 73 74 69 66 65 65 65 66 66 66 67 68 67 67 68 69 70 69 68 70 70 70 70 70 71 68 63 61 60 58 55 53 58 69 86 96 100 101 99 101 100 90 86 91 95 97 90 85 90 94 92 92 94
51 52 58 61 63 63 61 59 54 49 52 63 72 77 76 76 79 80 84 87 81 74 71 69 64 62 63 63 63 64 64 65 66 66 66 67 67 68 67 67 67 67 68 67 67 71 70 66 64 61 56 52 51 51 55 69 86 96 101 100 99 102 94 85 89 97 97 94 92 93 94 93 93 94
53 55 59 62 63 61 59 58 53 47 52 65 73 75 75 74 76 81 85 89 87 78 70 68 65 62 62 61 59 61 63 64 66 67 66 67 68 69 69 68 67 67 67 68 67 69 69 68 66 60 54 49 48 51 53 59 71 84 97 101 99 101 98 85 83 93 97 95 96 97 96 94 93 94
55 57 59 60 60 56 55 58 53 47 54 67 73 73 74 74 73 77 84 89 91 85 75 71 67 62 61 62 59 59 62 63 65 66 67 67 67 69 70 70 69 69 69 69 69 68 68 67 68 64 56 51 49 51 54 58 64 74 87 98 99 100 101 88 78 89 99 97 96 99 99 96 94 96
56 58 58 58 55 50 52 58 54 49 54 65 71 73 73 73 71 71 77 85 90 89 83 76 71 66 63 62 59 58 60 62 63 65 66 67 67 68 69 70 71 71 71 72 71 70 69 67 68 68 63 58 52 49 54 61 68 75 83 93 98 99 101 95 83 84 94 97 96 97 100 99 95 97
56 59 57 57 54 47 50 59 56 51 53 58 64 68 68 69 68 66 67 74 83 89 88 80 73 69 66 62 60 59 59 60 61 64 65 66 67 68 68 70 71 72 72 73 73 73 72 69 68 69 68 65 57 53 61 68 70 74 81 91 97 97 99 100 94 88 88 94 99 96 95 98 95 95
53 55 54 54 51 47 51 58 56 52 52 53 55 57 58 59 59 59 59 64 74 83 87 82 74 70 67 63 60 58 60 61 62 63 64 66 67 67 68 69 71 73 73 74 75 74 73 72 70 69 70 70 65 62 65 66 63 65 73 85 96 99 98 99 101 97 88 87 98 99 94 96 97 94
50 49 49 49 48 49 54 55 52 50 51 52 52 51 52 52 53 54 55 60 69 76 80 79 75 71 67 64 61 58 58 61 63 65 65 65 66 67 68 69 70 73 74 75 75 75 74 72 71 71 70 70 70 65 61 56 53 55 61 73 90 99 100 98 97 97 91 83 90 100 96 95 98 96
49 48 48 48 49 51 51 48 47 49 49 50 50 49 49 49 51 53 55 60 67 72 74 74 72 70 67 64 61 57 57 60 62 64 66 67 66 67 69 71 72 74 75 76 76 75 74 73 71 71 71 70 71 68 62 56 51 51 53 65 86 98 99 100 97 95 96 90 86 94 98 96 97 95
50 49 48 49 51 48 44 42 45 47 48 47 47 47 46 46 48 52 56 61 66 69 71 71 69 68 67 63 60 57 57 60 61 61 65 68 68 68 70 73 75 76 76 76 76 75 75 74 73 73 73 73 72 70 68 65 59 54 51 62 88 101 99 100 100 97 99 99 93 94 100 98 94 93
50 48 49 52 50 42 38 41 45 46 47 47 47 47 46 46 49 53 57 61 65 68 70 69 68 68 67 64 60 58 58 60 61 61 64 68 69 70 73 76 77 78 77 77 77 77 76 76 76 76 76 75 74 72 71 70 67 60 52 57 79 97 98 97 101 100 99 99 98 97 100 100 96 94
48 48 50 51 46 38 38 43 46 46 47 46 46 45 43 45 48 53 58 60 63 68 70 68 68 70 69 63 59 58 58 59 60 62 64 68 70 74 78 81 80 79 79 79 80 80 80 80 80 79 78 77 76 74 73 72 71 66 59 56 66 83 91 91 94 100 100 98 98 98 99 100 99 95
47 48 51 49 42 37 41 45 46 47 47 45 43 40 37 38 41 48 56 60 61 64 68 68 69 71 68 61 57 58 59 59 61 63 66 70 74 79 85 88 86 83 82 84 85 85 83 82 81 80 80 79 77 76 74 73 72 72 69 63 59 65 76 80 84 93 99 100 100 100 100 100 100 98
47 49 51 47 40 37 41 44 45 47 47 43 39 35 33 33 34 37 45 52 55 59 65 68 68 67 64 60 58 60 60 62 64 66 70 75 80 85 90 92 90 86 85 89 92 89 85 83 82 80 79 78 76 75 73 72 72 73 73 70 63 58 61 67 72 81 92 99 100 100 100 100 99 100
50 50 50 47 41 38 40 43 46 48 45 39 35 32 31 31 30 31 34 38 43 49 57 63 64 60 60 61 60 60 61 64 67 70 75 81 87 92 95 95 93 89 88 92 94 92 86 83 82 81 78 76 75 74 73 73 73 73 73 74 72 64 57 56 60 68 81 94 100 100 100 100 99 100
51 50 51 49 44 39 40 43 47 47 42 37 35 33 31 29 29 30 32 33 37 41 47 54 57 55 56 59 60 59 61 65 70 76 82 88 94 98 98 97 94 90 87 89 93 92 86 81 81 80 77 75 75 75 74 73 74 75 74 75 75 72 64 57 55 59 67 79 93 100 100 100 100 100
54 56 55 51 43 39 42 44 45 44 40 37 36 35 33 30 29 29 31 33 36 39 43 48 52 53 54 57 59 59 62 67 73 81 89 94 98 100 99 95 90 86 83 83 87 88 83 80 80 79 76 76 76 76 75 74 74 74 74 74 74 73 69 62 57 56 57 63 79 95 100 100 100 100
56 58 56 49 42 41 44 43 41 40 38 37 37 38 35 32 30 29 30 32 36 41 44 47 50 53 55 57 59 61 64 69 76 86 94 98 99 100 99 94 88 84 82 81 84 85 83 81 81 79 77 77 77 76 75 75 74 74 74 74 74 72 69 64 59 56 54 57 71 89 99 100 99 100
51 49 48 45 43 44 44 42 38 37 38 38 39 39 37 35 33 31 30 34 40 45 47 48 51 53 55 57 59 62 65 70 78 91 99 99 99 100 99 96 91 87 85 84 85 86 85 82 82 81 79 78 79 78 77 76 75 75 74 72 72 70 67 64 60 56 53 56 68 84 96 100 100 99
44 42 43 43 43 44 43 40 37 37 38 39 40 40 39 38 37 34 33 37 42 46 47 49 51 53 55 58 60 62 66 71 81 93 100 100 99 100 100 99 96 92 89 86 85 88 88 84 82 82 80 79 79 78 77 76 74 74 74 74 74 73 70 67 63 57 54 56 65 79 92 100 100 99
41 41 42 42 43 44 42 39 36 37 38 39 40 39 40 41 39 36 36 39 43 46 48 50 52 54 56 58 60 63 66 72 82 92 99 100 100 100 100 100 99 98 92 85 85 91 93 88 85 82 81 82 80 76 75 75 74 74 75 75 75 75 77 77 70 60 57 59 64 74 88 98 101 99
42 42 42 42 42 43 42 38 35 36 38 39 39 38 38 41 40 38 39 43 45 47 49 51 53 55 57 58 60 63 67 73 82 92 99 100 100 100 100 99 100 101 95 87 88 97 98 94 90 83 81 83 83 78 76 75 75 75 75 76 78 77 81 89 83 68 63 68 73 78 86 95 100 100
44 43 43 43 42 41 40 38 35 35 36 38 37 37 39 40 39 39 42 45 46 48 49 51 54 55 56 59 60 63 67 73 83 94 100 100 100 100 100 99 100 100 96 92 95 100 100 97 93 86 82 83 81 79 79 79 78 78 78 81 82 78 80 93 94 79 69 74 83 88 92 96 100 100
44 44 43 42 41 40 38 37 36 35 35 36 36 37 38 37 37 40 44 46 47 49 50 52 54 55 57 60 62 64 68 75 85 96 100 99 99 100 99 99 100 100 98 97 99 100 100 99 96 89 85 86 86 86 87 86 82 79 77 77 77 75 81 95 100 89 74 69 78 90 97 99 100 100
43 43 42 41 39 38 37 37 37 36 34 35 37 38 35 32 34 39 44 47 48 49 51 53 55 56 58 61 63 65 69 77 88 96 99 97 98 100 99 98 99 99 100 100 100 100 100 99 97 93 89 89 90 91 91 88 82 77 74 75 76 79 89 98 101 96 84 71 74 90 99 100 100 99
42 42 42 40 37 37 38 38 38 37 34 32 37 41 35 27 30 38 43 47 49 50 53 55 56 57 58 60 63 65 70 78 88 95 97 96 97 98 97 95 95 99 101 100 100 100 100 99 99 97 93 91 90 91 90 87 84 81 82 84 82 83 92 100 100 99 96 88 88 96 100 99 100 100
41 41 41 38 36 38 39 39 38 38 35 30 35 44 39 27 26 36 43 47 50 53 55 56 57 57 57 59 62 64 68 77 88 96 97 96 97 97 95 91 91 95 99 99 100 100 99 100 100 99 97 94 93 94 92 90 89 89 92 96 90 84 91 100 100 99 100 99 99 100 98 97 99 100
40 40 39 37 37 38 41 41 39 39 39 33 33 42 44 32 24 32 43 48 51 55 56 56 57 57 57 58 61 63 67 75 87 97 100 98 98 98 96 92 89 91 93 94 97 100 100 99 99 99 99 98 98 99 98 97 98 97 98 101 97 92 95 100 100 100 100 100 100 100 99 99 99 100
39 39 39 38 38 39 41 42 41 40 42 39 35 40 46 39 26 26 37 45 48 52 55 54 55 55 55 57 60 63 68 74 82 93 99 100 100 99 97 94 92 91 90 89 92 96 98 100 99 99 99 99 99 100 100 99 100 100 100 100 100 99 100 100 100 100 100 100 100 100 100 100 99 100
37 38 39 38 38 39 40 41 42 42 43 44 41 41 45 44 31 22 29 39 44 47 50 51 52 54 55 57 60 64 68 71 78 88 95 98 99 98 96 95 96 96 94 91 91 91 93 97 99 100 100 100 99 99 99 99 100 100 100 100 100 100 100 100 100 100 100 100 100 100 100 100 100 100
36 37 38 38 39 39 40 40 42 43 44 45 46 44 45 46 37 26 28 37 43 45 47 50 53 55 57 57 59 63 67 70 74 82 90 95 98 97 96 95 97 99 98 97 97 95 91 91 93 96 99 100 100 100 99 99 100 100 100 100 100 100 100 100 100 100 100 99 100 100 100 100 100 100
36 36 37 38 39 39 40 40 41 44 45 45 47 47 46 47 42 32 29 34 39 42 45 48 50 54 57 58 59 63 67 70 72 78 85 91 95 97 98 97 96 99 99 98 99 99 95 92 90 90 92 95 96 99 100 100 100 100 100 100 100 100 100 100 100 100 100 98 98 99 100 100 100 100
37 36 37 38 38 39 40 40 41 43 44 46 48 48 47 47 44 36 31 31 34 38 43 45 46 50 56 58 59 62 65 69 71 75 81 87 91 94 97 98 98 100 100 99 99 100 98 96 93 89 88 87 87 91 97 100 100 100 100 100 100 100 100 100 100 100 100 98 97 98 100 100 100 100
38 37 37 37 37 38 39 39 40 42 43 45 47 48 48 48 46 40 34 30 29 33 40 44 45 47 53 57 57 58 62 67 71 74 79 86 89 90 92 95 97 99 99 99 100 100 99 98 96 93 90 87 86 90 97 99 100 100 100 100 100 100 100 100 99 99 100 100 99 99 100 100 100 100
39 38 38 37 36 37 39 38 39 40 42 44 46 48 48 49 48 44 39 32 26 26 33 40 42 44 49 54 55 55 58 63 68 73 78 83 88 90 90 91 94 96 97 97 99 100 100 100 99 96 93 89 89 94 98 98 98 99 100 100 100 100 100 99 100 100 100 100 100 99 99 100 100 100
39 38 39 38 37 37 38 38 38 39 40 42 44 47 48 49 49 46 43 37 30 25 26 33 38 41 44 49 53 55 57 59 63 69 74 81 87 90 91 90 91 93 94 93 95 98 99 100 100 99 97 95 95 97 97 97 98 99 98 98 99 100 100 100 100 100 100 100 100 100 100 100 100 100
40 39 39 39 38 37 37 37 38 38 39 41 43 45 47 49 49 48 45 40 35 29 26 29 35 38 41 44 47 50 54 57 61 66 70 76 83 88 89 89 89 90 91 92 94 97 99 100 100 100 100 99 98 99 99 99 99 100 99 97 96 97 99 99 99 100 100 99 99 99 98 98 99 99
39 39 39 39 38 38 38 38 38 38 39 40 42 44 47 48 49 49 46 43 38 33 28 28 31 35 39 42 43 46 48 52 56 60 63 68 76 83 85 86 87 87 88 90 94 97 99 100 100 98 97 95 93 93 94 94 95 98 100 99 97 96 95 96 97 99 100 98 96 96 97 97 98 98
38 39 39 39 39 39 39 39 40 39 39 39 41 43 46 48 50 50 48 44 41 37 32 29 29 32 36 38 41 45 47 47 50 53 56 61 68 76 80 83 84 86 87 88 91 95 96 97 96 94 93 91 90 89 91 93 95 98 99 100 99 97 95 93 92 94 96 95 93 95 96 96 97 98
36 38 39 39 39 40 40 40 40 40 40 39 39 41 45 48 49 50 49 46 44 41 37 33 30 30 33 35 37 41 44 45 46 48 51 54 60 68 75 80 82 85 86 87 88 89 90 91 92 92 92 93 93 94 96 98 99 100 100 100 100 99 98 95 92 90 91 90 89 92 93 92 92 96
35 36 37 38 39 40 40 40 40 40 40 40 38 39 43 47 49 50 50 48 45 43 41 37 33 31 33 35 35 37 39 42 44 44 45 48 53 60 69 76 78 77 78 78 79 82 85 88 90 92 94 96 96 97 99 100 99 99 100 100 100 100 100 98 95 94 93 90 87 88 89 88 91 97
35 35 36 37 38 39 39 39 39 39 39 40 40 39 40 43 47 50 51 49 47 45 44 41 37 34 33 34 36 36 36 38 41 42 41 43 46 50 59 70 74 72 69 68 71 76 81 85 89 92 94 97 98 99 99 100 100 100 100 100 99 100 100 98 97 97 97 96 94 92 91 92 96 99
34 35 36 36 37 38 38 39 39 38 39 40 40 40 39 40 44 49 51 50 48 46 46 44 41 38 35 35 39 43 42 38 38 40 39 39 40 42 48 57 67 71 68 64 65 71 76 80 86 90 92 94 97 98 99 100 100 100 100 100 100 100 100 99 98 99 99 100 100 99 98 98 99 100
Wind_Speed
22 23 24 25 24 23 23 23 22 21 20 19 17 16 14 10 6 4 6 7 12 24 29 25 29 39 39 38 38 36 37 37 35 35 37 38 39 39 38 37 36 36 36 35 35 35 33 31 31 28 26 25 21 18 17 19 28 38 42 41 42 42 40 39 39 38 37 38 39 38 38 39 39 37
21 23 24 24 23 21 21 21 22 22 21 19 17 15 14 12 9 5 6 6 11 23 29 27 30 36 38 38 37 36 37 37 36 35 36 36 37 39 38 37 36 35 36 36 36 36 34 32 31 30 28 25 23 21 17 17 22 31 40 43 43 44 42 41 41 40 39 40 40 40 40 39 39 39
21 22 23 22 21 20 19 20 23 25 23 20 17 15 14 13 12 10 6 6 11 20 25 28 32 33 35 36 36 36 37 36 36 37 37 37 37 38 39 38 37 36 36 38 38 37 36 35 32 31 30 26 24 23 19 17 19 26 34 41 44 45 44 44 44 42 41 42 42 41 41 41 40 42
20 21 21 20 18 18 19 21 25 26 24 20 17 16 15 14 13 13 9 6 11 19 21 25 30 32 33 34 34 35 37 37 37 37 38 39 38 38 38 39 39 38 38 39 39 38 37 37 35 32 31 28 25 23 21 18 17 20 29 37 43 46 47 46 46 44 43 44 44 43 42 42 42 43
20 20 19 17 16 16 19 22 25 27 24 20 17 16 16 16 15 14 12 9 12 19 22 24 27 30 31 33 34 35 37 38 38 38 38 39 39 38 37 39 40 40 39 40 39 39 39 38 37 35 32 29 26 23 20 19 18 16 22 32 39 44 48 49 47 46 45 45 45 45 43 43 43 44
17 17 16 15 15 17 20 22 24 26 25 21 17 17 17 17 19 17 16 14 13 18 24 26 28 30 30 31 34 35 35 37 38 39 39 39 39 39 37 38 40 41 41 41 39 39 40 39 38 37 34 30 27 24 21 19 19 17 16 25 35 40 45 49 49 49 47 46 46 46 44 44 45 45
15 15 14 14 16 19 20 20 22 24 25 22 18 17 18 19 21 21 20 18 16 18 24 27 28 30 30 31 33 35 35 35 37 38 39 39 39 39 39 39 40 41 42 42 41 40 40 39 38 37 35 32 28 26 22 20 19 18 16 18 28 37 42 46 50 51 49 47 47 47 46 45 46 46
13 12 13 14 16 20 20 19 20 22 23 23 20 19 20 20 21 23 23 22 20 20 23 27 29 30 30 31 33 35 35 35 37 38 38 39 39 40 41 40 41 41 41 42 42 41 39 38 37 35 34 33 30 27 23 21 19 18 17 16 20 31 40 46 50 52 51 49 47 48 48 47 47 47
12 12 13 14 16 18 19 19 20 21 21 22 22 22 22 22 22 24 25 25 24 22 23 27 30 30 30 31 33 33 33 35 37 38 38 38 39 41 43 43 42 41 41 42 43 41 39 37 35 33 32 32 31 28 25 24 22 20 19 16 16 22 33 45 50 51 52 52 49 49 51 49 48 49
11 13 14 15 17 17 18 19 20 21 21 21 23 24 24 24 24 25 26 27 26 24 25 27 29 30 30 31 32 33 33 33 34 37 39 40 40 41 44 46 45 43 42 43 42 40 38 36 33 31 31 32 33 32 31 29 26 23 20 16 15 16 23 38 51 52 52 54 52 49 51 51 49 49
9 13 14 15 16 17 17 19 20 20 21 22 23 25 26 27 27 27 28 28 27 26 26 26 27 29 30 30 32 34 34 31 31 32 35 39 43 44 43 44 46 46 44 41 39 38 36 34 32 32 33 34 35 35 34 32 28 24 21 17 14 15 17 26 45 54 54 55 56 53 52 52 51 50
9 12 13 14 15 17 17 18 20 20 21 23 24 25 27 28 28 28 28 28 27 26 25 26 27 27 28 30 32 34 33 29 29 32 32 33 41 46 45 42 42 43 43 41 38 35 33 33 35 35 35 35 34 35 34 32 29 25 21 17 14 14 15 18 31 48 55 55 57 56 55 54 54 53
9 11 11 11 15 18 18 18 20 22 23 25 27 28 28 28 28 28 28 28 27 25 24 25 26 26 26 29 31 31 31 30 32 36 35 32 36 43 45 43 38 36 38 39 38 36 34 36 39 38 36 36 34 35 35 33 31 28 23 19 17 15 14 15 19 34 49 55 57 57 57 57 56 56
8 9 8 11 16 18 18 20 22 24 26 27 28 28 27 28 29 28 28 28 27 25 23 25 26 24 24 28 31 31 32 34 35 35 34 34 37 38 35 35 34 31 31 34 39 41 37 35 39 39 37 37 35 33 34 32 31 30 27 23 20 19 18 15 15 21 34 48 57 59 58 58 58 57
7 7 7 12 16 18 19 22 25 27 29 28 27 27 27 27 27 28 27 28 28 26 24 26 27 24 24 30 33 32 34 36 35 35 35 34 34 31 24 23 27 29 31 33 39 44 40 33 36 40 38 36 34 32 32 32 31 30 29 27 25 24 24 21 17 16 22 35 50 58 59 59 59 59
6 6 8 14 16 18 21 24 27 29 29 29 28 28 28 27 28 28 27 27 29 28 27 27 27 27 27 31 33 34 36 37 37 37 36 33 31 30 25 23 27 34 39 37 38 44 43 33 32 38 38 34 33 32 32 32 32 31 31 30 28 26 26 26 24 20 18 24 38 51 58 60 61 60
5 6 10 14 15 18 22 24 28 30 29 29 29 29 29 30 29 30 29 29 29 30 28 27 29 31 31 32 35 38 38 39 38 36 34 34 33 31 30 32 37 42 43 38 36 38 39 33 29 34 37 34 33 33 32 32 32 31 30 29 28 27 26 26 28 26 21 20 28 42 53 59 61 61
4 7 11 15 16 19 22 24 27 29 28 29 30 30 31 31 32 31 31 32 32 31 31 30 31 34 35 35 37 41 40 39 38 35 35 37 36 34 35 38 41 43 39 35 30 28 31 32 28 31 36 34 32 32 31 31 31 30 30 29 28 28 26 25 26 28 27 23 23 32 45 55 59 60
4 7 12 15 17 19 21 24 26 26 27 29 30 31 32 32 33 32 32 33 32 32 33 33 33 35 37 38 39 40 40 39 38 39 39 40 39 38 37 35 36 38 35 30 25 21 27 32 28 30 36 35 33 33 31 31 32 31 30 30 29 29 27 25 25 27 29 27 24 26 37 50 58 60
5 7 11 14 16 18 21 23 23 25 27 28 30 31 33 33 33 33 33 32 30 31 33 34 35 35 36 38 39 39 40 39 41 42 40 39 39 36 31 29 32 36 34 29 24 22 26 31 29 30 34 34 33 33 32 30 30 30 30 30 30 30 28 26 26 27 29 29 26 25 31 43 56 61
5 7 10 12 15 18 20 21 23 25 26 28 30 31 32 33 33 33 34 32 30 32 33 34 36 37 37 39 39 39 40 40 43 42 37 37 37 31 22 19 25 36 40 33 25 22 24 28 29 28 31 32 32 31 30 29 29 29 30 30 30 30 28 26 26 27 30 30 27 26 29 37 49 58
5 7 9 12 16 18 19 20 23 25 26 28 29 30 32 32 32 34 35 34 33 34 35 36 37 38 39 40 40 40 40 41 43 40 37 39 38 31 25 22 25 35 39 31 21 18 21 25 26 24 23 25 25 25 25 25 25 25 25 25 26 25 25 25 25 27 30 30 28 27 28 33 43 53
7 9 10 13 16 17 17 20 23 25 25 27 28 29 31 31 31 33 34 33 34 35 35 37 38 39 40 40 40 40 41 42 43 41 40 41 38 32 32 32 24 19 24 29 26 21 22 23 23 19 14 12 13 16 17 18 19 20 20 22 22 21 19 20 23 27 30 30 29 28 28 31 40 49
8 10 12 14 15 16 17 20 23 24 25 25 27 29 30 30 30 32 32 31 33 34 34 36 37 39 40 41 41 41 41 44 45 43 42 41 38 34 35 36 27 17 24 36 36 28 24 22 21 19 14 8 8 13 16 18 20 21 21 21 19 18 18 17 19 25 29 29 28 28 27 29 38 47
10 12 14 14 15 16 17 19 22 23 24 25 26 28 28 28 29 30 31 32 33 33 34 36 37 38 40 42 42 42 42 45 46 43 42 41 40 38 36 36 34 29 32 38 37 31 25 18 15 15 14 13 13 16 18 21 23 22 18 17 17 17 19 18 17 21 27 28 27 27 28 30 37 47
11 13 14 14 15 15 16 19 22 23 24 26 27 27 28 28 30 30 30 32 33 34 35 35 36 38 39 40 42 42 43 45 45 43 43 43 41 40 38 35 33 32 34 38 35 26 19 13 11 10 10 10 12 14 15 17 21 20 17 15 17 19 19 17 16 19 24 27 27 27 28 30 35 45
11 12 12 13 13 14 16 20 21 22 25 26 27 28 29 29 30 31 31 32 33 34 34 35 36 38 38 39 40 41 42 44 45 44 44 44 42 41 39 35 30 29 33 35 28 16 10 8 8 9 10 11 10 10 10 13 18 21 21 21 22 21 18 14 15 17 19 23 25 25 27 30 34 42
10 11 11 12 12 12 16 19 20 21 25 26 27 30 31 31 31 31 32 32 32 33 34 34 34 37 39 39 40 41 42 43 43 44 45 44 42 41 39 34 30 30 34 34 26 14 8 9 10 10 12 14 12 9 8 12 18 22 22 25 24 20 15 11 13 17 17 19 22 23 26 31 35 40
9 10 10 10 10 11 15 18 19 21 24 26 28 30 32 33 32 31 32 32 32 32 32 33 34 36 39 40 41 42 43 43 42 43 45 44 42 41 39 35 33 35 38 37 31 23 16 12 13 15 17 18 17 15 14 16 19 21 20 21 21 20 17 12 14 18 17 18 18 20 24 29 33 38
8 8 8 8 9 11 14 17 19 20 23 26 28 29 32 34 33 32 32 32 32 31 32 33 35 36 39 41 42 44 45 43 42 42 43 43 43 42 39 37 38 41 42 41 37 31 26 23 19 15 15 16 14 12 12 12 13 14 14 14 15 15 13 8 13 15 16 17 17 18 21 25 30 36
7 8 8 8 9 10 13 16 18 19 21 25 28 30 31 33 34 32 30 30 31 31 32 34 35 38 40 42 43 44 44 43 42 42 42 41 42 42 39 35 37 41 43 43 41 35 29 26 26 26 23 17 11 9 9 10 9 10 12 10 5 5 5 3 9 10 13 16 15 14 17 21 26 30
7 8 8 8 8 10 12 15 18 20 21 24 27 29 30 32 34 32 29 29 31 32 33 34 36 38 40 41 42 42 43 42 43 43 41 40 41 42 39 34 33 36 38 42 44 41 35 27 21 22 28 32 28 21 17 18 18 16 16 19 20 17 14 12 11 11 12 13 13 11 11 14 19 22
7 9 9 8 9 10 13 16 18 20 21 22 25 28 29 30 33 33 31 30 31 33 33 34 35 37 38 39 41 41 41 42 42 42 41 40 39 40 38 34 32 33 33 35 40 42 41 35 25 17 18 29 39 37 27 20 20 22 21 22 25 26 22 19 17 15 14 17 18 17 13 9 11 14
6 9 9 9 9 10 13 15 17 18 20 21 23 26 27 28 31 33 31 29 30 32 32 33 35 36 36 37 39 39 39 41 42 42 41 39 38 37 35 32 33 34 33 33 37 39 40 39 33 24 19 23 36 46 42 30 21 23 27 27 27 28 26 24 23 20 19 20 21 20 18 14 9 8
5 8 9 8 8 9 11 13 15 16 17 19 21 24 25 26 28 31 31 29 29 30 32 33 34 35 36 36 37 38 38 39 40 41 41 39 38 36 33 30 30 32 33 34 35 36 37 36 34 30 24 21 24 34 46 45 32 24 28 31 29 27 28 29 28 25 23 22 22 21 21 20 15 9
4 6 8 7 8 9 10 12 14 14 16 17 19 21 23 23 25 28 30 29 28 29 30 32 33 35 35 35 36 37 37 37 38 38 39 39 37 36 34 33 32 32 32 33 34 35 34 34 32 25 17 14 13 15 28 43 44 33 27 29 30 28 28 31 32 29 28 27 26 25 24 24 20 13
4 5 6 6 7 8 9 11 13 14 15 16 17 19 20 21 22 25 28 29 29 28 29 30 32 33 34 35 35 36 37 36 36 36 37 37 36 33 32 33 34 34 33 32 34 35 32 31 32 26 15 10 11 9 13 32 48 46 36 30 30 29 30 32 32 31 31 33 32 30 30 30 27 19
6 6 7 6 6 8 9 10 12 14 15 16 16 18 19 20 19 21 25 28 29 28 28 28 30 31 33 34 35 35 35 36 35 35 36 36 34 32 30 30 31 33 34 35 37 38 35 32 32 30 20 11 8 7 9 22 40 48 45 37 32 31 32 31 29 28 30 32 33 33 33 32 30 24
7 8 8 7 7 8 9 10 12 14 15 15 15 17 19 20 19 19 23 26 28 28 27 27 28 29 31 33 34 33 33 34 34 34 34 34 33 32 30 29 28 29 31 33 35 38 38 36 35 33 28 20 13 11 12 18 28 40 47 45 39 36 34 30 26 25 26 27 29 32 33 31 29 25
7 9 9 8 8 9 10 11 12 13 14 14 14 15 17 19 18 18 20 23 26 27 27 27 26 27 29 31 33 33 33 33 33 32 32 33 33 32 31 29 28 27 27 28 30 33 35 35 34 32 31 27 22 19 21 24 29 38 46 48 44 40 35 32 29 27 25 23 26 29 28 27 28 28
9 10 10 9 9 10 11 11 12 13 14 14 14 14 16 18 18 17 17 20 23 25 26 26 26 26 27 28 30 31 32 33 34 33 33 32 32 32 32 30 29 28 26 25 27 29 30 31 32 32 32 31 30 28 24 20 21 28 37 43 45 43 38 33 30 28 24 24 28 29 26 25 28 30
11 11 10 10 10 11 12 12 13 13 14 14 14 14 14 16 17 16 16 18 20 23 25 25 25 24 25 26 27 29 30 32 32 33 33 33 32 31 32 31 30 29 26 24 24 27 29 31 34 35 36 36 35 29 19 14 16 23 29 34 39 43 44 40 36 31 26 23 22 20 17 17 18 19
13 12 12 11 11 12 13 13 13 14 14 15 15 14 13 14 16 16 16 17 18 21 23 24 24 23 23 24 25 26 28 30 31 32 33 33 32 30 29 28 28 28 27 26 25 27 30 33 34 35 36 36 33 27 21 20 23 25 27 29 33 37 41 44 44 42 37 32 26 20 16 17 16 15
15 14 13 12 13 14 14 14 14 15 15 15 15 15 14 13 14 15 15 15 16 18 20 22 22 22 22 23 23 24 25 27 29 30 31 32 32 30 28 27 26 27 27 27 27 28 29 30 32 33 33 31 30 28 25 24 24 24 26 29 32 33 35 39 43 45 45 43 39 35 34 35 34 31
16 15 15 14 15 15 15 15 15 15 16 16 16 16 14 13 13 14 14 14 14 15 18 20 21 21 21 21 22 23 23 24 26 27 29 30 31 30 29 27 26 25 25 26 26 26 26 27 28 30 29 28 28 28 26 25 25 25 26 28 29 30 31 34 36 39 40 40 39 37 38 38 38 36
Wind_Direction
59 60 62 63 59 51 47 42 36 31 28 26 25 22 20 12 355 331 330 335 334 338 343 341 338 343 345 342 342 342 341 341 341 340 340 339 338 337 337 338 339 340 340 341 341 340 338 339 338 338 340 341 335 322 300 270 243 228 220 217 219 218 217 216 214 210 207 205 205 206 205 205 202 200
57 59 60 58 53 47 43 38 31 28 24 23 25 26 26 22 15 352 322 320 332 334 336 337 337 340 342 342 341 341 340 340 339 339 339 338 337 336 335 337 338 337 337 338 337 339 339 338 337 336 333 334 336 331 312 290 270 246 226 217 217 218 217 217 216 213 210 207 207 208 207 207 205 202
54 58 57 53 50 44 39 34 27 24 22 23 28 31 32 28 19 2 333 308 328 333 331 333 337 339 340 341 341 340 339 340 340 339 338 337 336 335 335 335 335 334 334 334 335 335 336 336 334 332 329 326 329 332 325 306 286 263 239 224 218 218 217 217 217 216 213 209 208 210 209 207 206 205
53 55 54 49 46 39 33 29 24 21 21 26 33 35 29 27 18 359 340 301 313 328 328 328 334 338 339 339 340 339 337 338 339 338 336 336 335 335 334 333 332 331 331 331 332 331 330 332 332 327 324 322 321 324 325 321 304 276 252 236 224 218 217 218 218 218 216 212 209 210 211 209 208 207
51 52 52 49 42 33 29 26 21 19 21 26 32 32 23 17 11 356 337 310 303 321 329 328 330 335 336 336 337 337 335 335 336 335 334 335 334 333 331 330 329 328 328 329 329 327 326 327 328 326 322 319 318 319 319 321 317 296 265 248 236 225 218 216 218 219 219 216 211 209 211 210 209 208
51 50 51 49 39 28 25 24 21 19 21 24 25 23 16 6 2 355 338 320 305 311 323 326 328 332 333 331 333 334 332 331 331 331 332 332 332 331 329 327 326 325 325 326 325 324 324 323 324 324 322 318 315 315 316 316 316 312 284 255 245 236 224 216 217 220 219 219 215 210 209 210 210 208
53 51 49 45 34 23 20 20 21 20 21 23 20 14 9 1 356 354 344 330 314 306 315 321 322 326 327 326 328 330 329 328 328 327 327 329 328 328 327 325 323 323 323 323 322 320 320 321 321 320 320 318 313 311 313 314 310 310 303 269 248 242 234 222 217 219 220 220 217 211 209 211 210 207
56 49 44 39 26 17 16 16 17 17 19 20 18 11 6 360 354 351 347 338 325 310 308 314 317 319 321 322 324 326 326 325 325 324 323 325 325 325 325 324 322 322 322 320 319 318 317 317 317 317 317 316 313 311 310 308 304 303 306 292 258 243 239 232 223 218 220 222 218 212 210 211 210 207
57 46 40 34 21 14 15 14 10 10 12 13 12 8 4 360 353 347 344 339 330 317 308 310 316 317 317 319 322 324 324 322 322 322 321 322 322 323 323 322 321 320 320 319 317 315 315 314 314 314 314 314 313 311 306 301 299 298 299 298 278 250 239 237 230 221 218 221 220 214 211 211 210 208
51 40 37 30 20 16 13 10 6 6 6 6 5 2 360 356 351 346 343 338 331 323 315 312 314 317 318 318 320 323 325 321 319 320 320 320 320 321 321 321 320 319 317 316 315 313 312 312 311 310 311 311 310 308 304 299 296 294 293 294 290 272 246 237 232 226 222 221 220 218 215 212 210 209
44 35 33 28 21 16 13 10 10 10 8 5 3 360 356 353 349 345 341 337 331 325 320 317 316 317 318 318 318 322 325 322 319 319 318 317 319 320 319 318 318 318 316 313 312 311 309 308 307 306 306 306 305 304 303 301 297 291 287 288 290 287 273 246 231 225 223 221 219 219 217 213 210 209
43 35 31 28 21 16 15 16 17 16 10 6 2 358 354 350 347 343 340 336 331 327 323 320 319 319 319 320 320 323 326 324 321 322 317 312 315 317 316 315 315 315 314 312 310 308 307 305 303 303 302 302 301 301 301 300 297 290 282 281 288 292 293 274 240 226 222 221 220 218 216 213 210 209
44 36 33 29 20 17 19 21 20 16 11 5 359 356 354 350 346 342 339 335 331 328 325 322 323 322 320 321 322 324 326 323 320 320 317 311 311 313 311 311 313 314 311 310 307 304 304 304 302 301 299 298 297 297 297 295 293 289 282 275 275 280 286 291 265 236 225 222 221 219 217 214 211 209
43 39 39 28 19 20 22 20 15 10 7 4 360 358 356 352 347 342 337 335 332 329 326 323 324 323 319 322 323 322 322 322 320 320 318 314 313 313 310 309 312 314 312 308 305 302 302 302 300 298 296 295 295 293 292 292 290 287 284 277 269 267 270 276 275 254 235 225 220 219 218 215 212 210
48 45 39 26 21 21 19 12 7 4 2 2 2 2 1 358 354 346 338 334 332 330 326 323 323 321 318 321 324 322 322 323 321 320 319 316 314 313 311 309 312 314 313 309 303 300 300 299 296 294 293 292 291 290 288 289 288 285 284 281 272 264 263 264 265 263 251 233 223 219 218 216 213 210
54 50 33 23 19 16 10 3 360 360 360 2 3 3 2 2 1 357 350 342 337 333 327 324 323 322 320 322 323 324 324 322 321 321 319 317 313 310 307 305 305 309 311 307 298 295 297 298 292 288 289 288 287 286 286 286 286 284 283 282 277 268 260 260 261 257 253 242 230 222 218 216 214 211
58 45 26 16 8 4 2 360 359 359 0 3 3 3 3 3 2 3 1 356 348 340 332 326 324 325 324 321 321 324 324 322 321 321 319 316 312 307 305 304 303 306 308 302 293 290 293 296 290 285 288 289 286 285 285 285 284 283 282 280 278 273 263 258 257 254 250 244 235 228 221 217 215 213
58 37 20 6 357 357 1 1 1 1 2 3 2 1 3 3 2 2 1 358 354 347 340 333 327 329 328 323 322 325 326 323 321 320 318 316 312 307 306 305 304 305 304 298 291 287 291 295 291 285 287 289 286 284 283 283 282 280 279 277 275 274 268 259 253 250 248 245 238 232 226 220 217 215
56 30 11 360 356 359 3 5 5 4 4 3 1 1 2 1 1 2 360 356 352 348 344 339 333 332 331 328 326 327 327 325 323 322 319 316 314 311 310 309 307 306 304 299 290 283 291 295 289 284 287 287 285 284 282 281 280 278 276 275 273 272 269 261 251 244 243 243 239 235 229 222 220 219
56 25 5 359 360 2 5 8 9 8 5 4 2 1 1 0 1 1 358 355 353 350 348 344 340 337 336 334 332 331 330 329 328 326 323 321 321 318 314 313 312 308 306 305 294 282 287 292 285 282 286 286 284 284 282 280 279 277 274 273 272 271 268 262 253 241 236 238 237 235 231 223 220 220
44 24 11 5 4 4 6 10 12 10 7 6 5 2 360 359 359 358 356 355 356 356 352 349 346 344 343 341 338 336 335 335 334 330 326 325 325 320 313 316 315 309 308 311 304 286 282 287 284 282 284 284 283 284 283 280 278 276 274 273 272 270 267 261 251 238 232 233 233 233 231 224 220 219
39 34 25 15 9 7 10 13 14 13 9 8 7 3 0 358 356 355 354 353 354 355 353 352 351 349 347 344 341 339 338 338 339 335 329 327 324 317 313 315 313 308 307 313 315 293 281 285 284 281 284 284 281 282 283 282 282 279 277 277 277 275 269 260 249 235 228 228 230 230 230 226 221 218
53 41 30 22 16 13 14 15 15 15 12 10 9 5 2 358 354 353 353 351 350 350 350 350 349 348 348 345 342 341 340 341 342 338 333 329 324 317 315 314 312 305 303 312 318 302 286 285 281 275 281 286 283 285 286 286 287 285 284 286 285 283 278 266 248 233 226 225 227 228 230 228 222 216
46 35 28 24 20 16 16 16 16 17 15 13 11 9 5 359 353 352 353 353 352 350 348 349 348 347 347 346 344 342 341 342 343 339 336 334 328 322 319 315 313 303 297 309 315 305 287 280 270 266 267 267 281 291 289 288 290 291 292 292 290 290 291 281 254 233 225 224 227 228 228 226 220 215
34 28 24 22 20 17 17 18 18 18 18 16 14 12 8 2 358 356 356 355 355 354 351 350 350 348 348 347 345 344 342 342 341 339 339 339 336 332 327 320 315 306 304 315 320 309 292 274 260 262 263 258 268 283 290 294 293 295 299 297 293 297 300 290 261 233 223 224 227 228 228 226 221 215
33 26 21 19 18 18 20 21 20 19 19 19 17 13 10 7 4 3 1 359 358 356 353 351 350 349 348 346 344 344 343 341 340 340 342 343 342 339 336 330 322 314 317 327 329 317 295 270 258 267 270 267 273 279 288 296 295 298 304 302 298 305 307 292 260 234 224 222 224 225 226 226 223 217
30 24 19 17 18 20 21 22 21 20 20 19 18 16 12 10 8 7 5 2 359 356 354 352 350 349 347 345 343 343 342 341 342 344 346 346 345 345 344 343 340 335 337 342 342 330 301 277 273 274 275 281 288 285 282 289 295 300 306 308 310 317 318 296 256 234 226 223 223 224 224 225 224 220
25 19 15 15 19 22 22 21 20 19 20 20 19 17 15 12 11 9 6 2 359 356 354 352 349 348 347 345 343 342 343 344 346 348 349 350 349 349 351 354 357 358 1 4 4 358 331 304 296 295 290 283 281 283 285 288 292 296 304 311 315 322 327 301 249 232 227 223 222 223 220 219 221 218
25 20 16 17 22 22 20 21 19 16 18 19 18 17 16 14 12 10 7 3 359 356 353 350 349 348 347 347 346 347 348 350 351 351 351 352 353 355 358 1 6 10 14 18 20 21 14 344 313 301 293 283 276 274 275 280 286 292 299 302 301 309 318 292 240 224 219 215 217 219 217 215 215 213
30 25 21 19 22 22 21 20 17 14 14 17 17 17 16 15 14 11 8 4 360 356 353 351 350 349 349 351 352 353 354 353 353 353 352 353 355 358 0 4 8 13 17 21 23 25 25 20 12 352 319 297 292 294 290 289 296 307 313 301 287 301 315 271 223 214 208 204 207 213 213 212 212 211
31 25 21 18 17 20 20 18 16 13 11 13 15 15 14 14 14 13 10 7 4 360 356 355 353 353 354 355 355 355 356 355 355 356 356 356 357 359 2 5 8 9 14 19 23 25 24 21 23 26 21 11 6 9 10 11 3 352 4 22 34 17 24 147 180 186 187 185 185 191 200 206 208 209
26 18 15 16 15 15 15 13 12 12 10 10 12 12 11 11 13 13 12 10 9 6 3 0 358 357 357 357 356 356 356 356 357 358 359 360 360 1 5 9 7 5 8 13 18 22 24 20 14 20 29 32 33 33 35 36 30 21 25 44 59 63 65 86 114 135 149 147 139 141 167 194 204 207
22 16 10 11 12 12 13 12 10 10 8 7 8 10 9 8 11 13 13 11 9 8 6 3 0 358 358 358 358 358 357 356 358 360 2 2 2 4 7 8 6 4 6 8 11 15 21 24 23 17 25 36 39 38 35 31 29 32 36 44 51 54 57 70 88 106 117 115 109 105 109 144 182 197
12 13 7 6 10 11 11 10 10 8 6 3 4 6 5 5 9 12 13 12 10 9 8 7 4 1 359 358 359 358 356 356 358 1 3 4 4 6 8 6 5 5 7 9 10 11 13 19 23 26 30 39 42 41 39 33 28 35 42 47 49 49 53 63 75 87 98 104 104 94 83 87 116 162
1 6 2 2 9 10 6 7 8 6 4 2 0 0 1 2 6 10 12 13 12 10 10 10 8 5 2 360 359 359 358 357 358 1 3 5 5 6 7 7 6 6 9 9 9 9 12 14 16 21 27 32 37 39 38 36 35 38 42 46 48 49 53 62 71 78 85 93 97 88 72 64 68 91
341 356 355 354 2 3 358 360 3 2 2 0 358 357 355 356 2 8 11 12 12 12 12 11 9 7 5 2 2 2 2 0 360 1 3 5 5 4 5 7 8 9 12 13 10 9 13 15 15 17 20 24 31 33 30 33 39 45 46 45 46 48 54 63 68 70 72 76 79 77 67 58 55 62
308 328 338 341 348 351 351 353 355 356 357 356 355 355 352 351 355 2 7 9 11 12 13 13 11 10 8 5 5 5 5 4 2 2 3 4 5 5 5 5 8 9 11 14 14 14 14 16 18 20 17 21 35 33 18 28 38 45 48 47 46 47 54 61 62 61 63 68 70 71 71 68 62 61
296 301 312 320 330 338 341 345 347 350 352 352 352 352 350 348 349 355 2 8 10 10 12 13 13 12 11 9 7 5 6 7 6 5 5 4 5 6 6 5 7 9 11 14 16 16 17 18 19 20 19 17 26 27 15 24 33 39 44 48 48 48 52 56 55 54 59 65 68 69 72 73 69 70
288 290 295 298 309 322 331 336 340 343 347 348 348 349 348 346 344 348 358 6 8 9 11 13 13 13 13 12 11 8 7 8 7 5 5 5 5 6 6 7 8 9 13 16 17 17 18 19 19 20 20 19 15 15 26 37 39 40 44 49 50 50 50 52 53 53 56 63 70 72 75 76 75 78
277 282 285 286 294 308 319 326 332 337 341 344 344 344 345 345 343 344 352 2 6 7 8 10 13 14 13 13 13 12 10 10 9 7 7 7 8 8 8 10 12 13 15 17 18 18 18 19 21 25 28 30 33 37 43 49 46 41 43 48 50 51 52 53 55 55 54 62 72 72 71 71 69 70
276 279 279 276 280 295 309 317 323 330 335 338 339 339 340 343 342 340 345 356 4 6 6 7 10 13 13 13 14 13 11 11 10 10 10 10 11 11 12 13 14 15 17 17 17 18 21 24 30 37 39 39 42 44 44 43 37 34 38 44 50 54 56 56 58 59 58 66 74 73 71 73 72 70
276 277 275 269 271 285 301 310 315 322 329 334 336 334 334 338 341 338 338 347 358 4 5 5 7 10 13 14 14 14 14 12 11 11 12 12 12 12 13 14 14 14 16 18 17 20 26 31 37 42 43 41 41 42 40 35 31 33 36 40 47 53 57 59 61 61 60 63 70 72 73 76 72 65
270 271 271 268 268 278 292 302 308 314 320 327 332 331 328 330 336 337 335 339 351 1 4 3 3 6 10 13 14 15 15 15 14 14 15 15 14 13 12 14 16 17 20 22 24 28 33 36 38 42 43 42 41 43 42 40 38 38 39 40 44 50 55 59 63 65 64 64 67 71 80 87 87 81
265 267 268 268 268 275 285 295 302 308 313 319 324 326 324 322 327 333 333 332 340 354 1 1 0 2 5 10 13 15 16 16 16 17 18 18 19 18 16 16 18 21 24 26 28 32 36 38 42 45 44 43 43 45 44 42 42 42 43 45 47 48 51 56 61 63 65 66 70 75 80 84 89 92
264 266 267 267 268 273 280 288 295 302 308 311 314 317 319 317 318 324 327 325 329 342 354 359 358 358 360 5 10 13 15 17 18 20 21 23 23 24 22 19 19 22 26 28 29 32 36 40 45 48 49 47 47 48 48 48 47 46 46 48 48 49 52 56 60 61 62 64 70 77 81 84 89 93